| time (UTC) | temp F | wind direction | speed knots | gust knots | rain 1hr in | rain 24hr in | rain mn in | humidity % | barometer mb |
| 20260508014618 | 65 | 228 | 4.3 | 13.0 | 0.00 | 0.00 | 0.00 | 10 | 1018.5 |
| 20260508013012 | 65 | 215 | 6.1 | 15.6 | 0.00 | 0.00 | 0.00 | 9 | 1018.3 |
| 20260508011508 | 66 | 185 | 7.0 | 14.8 | 0.00 | 0.00 | 0.00 | 10 | 1018.2 |
| 20260508010004 | 66 | 222 | 5.2 | 12.2 | 0.00 | 0.00 | 0.00 | 10 | 1018.3 |
| 20260508004601 | 67 | 231 | 7.0 | 12.2 | 0.00 | 0.00 | 0.00 | 10 | 1018.3 |
| 20260508003106 | 66 | 216 | 7.0 | 11.3 | 0.00 | 0.00 | 0.00 | 10 | 1018.4 |
| 20260508001556 | 67 | 206 | 4.3 | 9.6 | 0.00 | 0.00 | 0.00 | 11 | 1018.4 |
| 20260508000047 | 66 | 261 | 7.8 | 12.2 | 0.00 | 0.00 | 0.00 | 11 | 1018.5 |
| 20260507234542 | 66 | 220 | 8.7 | 13.0 | 0.00 | 0.00 | 0.00 | 13 | 1018.5 |
| 20260507233038 | 66 | 291 | 10.4 | 17.4 | 0.00 | 0.00 | 0.00 | 14 | 1018.5 |
| 20260507231534 | 66 | 222 | 7.8 | 14.8 | 0.00 | 0.00 | 0.00 | 15 | 1018.6 |
| 20260507230029 | 65 | 234 | 8.7 | 14.8 | 0.00 | 0.00 | 0.00 | 16 | 1018.6 |
| 20260507224525 | 65 | 247 | 7.0 | 13.0 | 0.00 | 0.00 | 0.00 | 18 | 1018.6 |
| 20260507223020 | 66 | 248 | 7.0 | 13.0 | 0.00 | 0.00 | 0.00 | 18 | 1018.7 |
| 20260507221515 | 65 | 327 | 5.2 | 13.0 | 0.00 | 0.00 | 0.00 | 16 | 1018.9 |
| 20260507220012 | 65 | 81 | 2.6 | 15.6 | 0.00 | 0.00 | 0.00 | 18 | 1019.1 |
| 20260507214506 | 65 | 302 | 9.6 | 13.0 | 0.00 | 0.00 | 0.00 | 15 | 1019.3 |
| 20260507213003 | 65 | 319 | 7.0 | 13.9 | 0.00 | 0.00 | 0.00 | 14 | 1019.4 |
| 20260507211626 | 64 | 343 | 7.0 | 10.4 | 0.00 | 0.00 | 0.00 | 12 | 1019.7 |
| 20260507210054 | 64 | 313 | 7.0 | 12.2 | 0.00 | 0.00 | 0.00 | 12 | 1019.8 |
| 20260507204557 | 64 | 280 | 7.8 | 14.8 | 0.00 | 0.00 | 0.00 | 10 | 1020.0 |
| 20260507203045 | 63 | 34 | 2.6 | 13.9 | 0.00 | 0.00 | 0.00 | 9 | 1020.2 |
| 20260507201541 | 63 | 311 | 5.2 | 16.5 | 0.00 | 0.00 | 0.00 | 8 | 1020.4 |
| 20260507200038 | 62 | 330 | 3.5 | 13.9 | 0.00 | 0.00 | 0.00 | 9 | 1020.5 |
| 20260507194538 | 62 | 307 | 6.1 | 11.3 | 0.00 | 0.00 | 0.00 | 9 | 1020.6 |
| 20260507193035 | 62 | 317 | 7.8 | 15.6 | 0.00 | 0.00 | 0.00 | 9 | 1020.8 |
| 20260507191528 | 62 | 310 | 8.7 | 15.6 | 0.00 | 0.00 | 0.00 | 10 | 1020.8 |
| 20260507190028 | 61 | 341 | 10.4 | 17.4 | 0.00 | 0.00 | 0.00 | 11 | 1020.9 |
| 20260507184523 | 60 | 310 | 7.0 | 14.8 | 0.00 | 0.00 | 0.00 | 14 | 1021.1 |
| 20260507183022 | 59 | 308 | 8.7 | 16.5 | 0.00 | 0.00 | 0.00 | 15 | 1021.1 |
| 20260507181516 | 59 | 291 | 9.6 | 15.6 | 0.00 | 0.00 | 0.00 | 16 | 1021.3 |
| 20260507180014 | 58 | 318 | 6.1 | 18.2 | 0.00 | 0.00 | 0.00 | 23 | 1021.4 |
| 20260507174510 | 56 | 308 | 13.0 | 20.9 | 0.00 | 0.00 | 0.00 | 26 | 1021.6 |
| 20260507173005 | 54 | 338 | 11.3 | 17.4 | 0.00 | 0.00 | 0.00 | 29 | 1021.8 |
| 20260507171500 | 53 | 13 | 8.7 | 16.5 | 0.00 | 0.00 | 0.00 | 35 | 1022.1 |
| 20260507170057 | 52 | 4 | 10.4 | 18.2 | 0.00 | 0.00 | 0.00 | 37 | 1022.2 |
| 20260507164553 | 50 | 345 | 11.3 | 19.1 | 0.00 | 0.00 | 0.00 | 39 | 1022.2 |
| 20260507163048 | 49 | 354 | 5.2 | 12.2 | 0.00 | 0.00 | 0.00 | 44 | 1022.4 |
| 20260507161545 | 47 | 32 | 3.5 | 15.6 | 0.00 | 0.00 | 0.00 | 49 | 1022.4 |
| 20260507160040 | 45 | 345 | 9.6 | 15.6 | 0.00 | 0.00 | 0.00 | 50 | 1022.6 |
| 20260507154535 | 44 | 18 | 7.8 | 14.8 | 0.00 | 0.00 | 0.00 | 49 | 1022.7 |
| 20260507153034 | 44 | 341 | 8.7 | 18.2 | 0.00 | 0.00 | 0.00 | 51 | 1022.7 |
| 20260507151528 | 44 | 298 | 8.7 | 13.9 | 0.00 | 0.00 | 0.00 | 50 | 1022.7 |
| 20260507150022 | 44 | 317 | 6.1 | 10.4 | 0.00 | 0.00 | 0.00 | 54 | 1022.7 |
| 20260507144520 | 42 | 310 | 4.3 | 13.0 | 0.00 | 0.00 | 0.00 | 58 | 1022.9 |
| 20260507143013 | 42 | 329 | 4.3 | 9.6 | 0.00 | 0.00 | 0.00 | 60 | 1023.1 |
| 20260507141509 | 42 | 359 | 7.0 | 10.4 | 0.00 | 0.00 | 0.00 | 62 | 1023.2 |
| 20260507140005 | 41 | 359 | 3.5 | 9.6 | 0.00 | 0.00 | 0.00 | 64 | 1023.3 |
| 20260507134503 | 41 | 314 | 0.9 | 2.6 | 0.00 | 0.00 | 0.00 | 67 | 1023.2 |
| 20260507133057 | 39 | 276 | 0.9 | 3.5 | 0.00 | 0.00 | 0.00 | 70 | 1023.1 |
| 20260507131552 | 37 | 58 | 2.6 | 4.3 | 0.00 | 0.00 | 0.00 | 69 | 1023.2 |
| 20260507130048 | 36 | 72 | 1.7 | 4.3 | 0.00 | 0.00 | 0.00 | 73 | 1023.3 |
| 20260507124543 | 35 | 72 | 0.9 | 2.6 | 0.00 | 0.00 | 0.00 | 77 | 1023.3 |
| 20260507123039 | 34 | 72 | 1.7 | 3.5 | 0.00 | 0.00 | 0.00 | 77 | 1023.3 |
| 20260507121537 | 33 | 68 | 1.7 | 5.2 | 0.00 | 0.00 | 0.00 | 76 | 1023.3 |
| 20260507120034 | 34 | 73 | 1.7 | 4.3 | 0.00 | 0.00 | 0.00 | 76 | 1023.3 |
| 20260507114534 | 34 | 73 | 1.7 | 3.5 | 0.00 | 0.00 | 0.00 | 73 | 1023.2 |
| 20260507113039 | 33 | 73 | 1.7 | 4.3 | 0.00 | 0.00 | 0.00 | 73 | 1023.2 |
| 20260507111536 | 33 | 76 | 3.5 | 4.3 | 0.00 | 0.00 | 0.00 | 72 | 1023.2 |
| 20260507110030 | 33 | 81 | 3.5 | 5.2 | 0.00 | 0.00 | 0.00 | 71 | 1023.1 |
| 20260507104531 | 34 | 70 | 0.9 | 4.3 | 0.00 | 0.00 | 0.00 | 71 | 1023.2 |
| 20260507103027 | 34 | 91 | 1.7 | 5.2 | 0.00 | 0.00 | 0.00 | 70 | 1023.2 |
| 20260507101537 | 34 | 96 | 1.7 | 3.5 | 0.00 | 0.00 | 0.00 | 71 | 1023.2 |
| 20260507100030 | 35 | 107 | 1.7 | 3.5 | 0.00 | 0.00 | 0.00 | 73 | 1023.1 |
| 20260507094520 | 35 | 108 | 0.9 | 2.6 | 0.00 | 0.00 | 0.00 | 74 | 1023.3 |
| 20260507093026 | 35 | 108 | 0.9 | 2.6 | 0.00 | 0.00 | 0.00 | 73 | 1023.2 |
| 20260507091536 | 35 | 108 | 0.0 | 2.6 | 0.00 | 0.00 | 0.00 | 70 | 1023.2 |
| 20260507090013 | 35 | 108 | 0.0 | 1.7 | 0.00 | 0.00 | 0.00 | 70 | 1023.2 |
| 20260507084510 | 36 | 108 | 0.9 | 2.6 | 0.00 | 0.00 | 0.00 | 70 | 1023.0 |
| 20260507083014 | 36 | 108 | 0.0 | 1.7 | 0.00 | 0.00 | 0.00 | 67 | 1023.0 |
| 20260507081507 | 37 | 108 | 0.9 | 3.5 | 0.00 | 0.00 | 0.00 | 65 | 1023.0 |
| 20260507080006 | 37 | 108 | 0.9 | 1.7 | 0.00 | 0.00 | 0.00 | 61 | 1022.9 |
| 20260507074505 | 38 | 108 | 0.0 | 1.7 | 0.00 | 0.00 | 0.00 | 60 | 1023.0 |
| 20260507073110 | 38 | 108 | 1.7 | 3.5 | 0.00 | 0.00 | 0.00 | 60 | 1022.8 |
| 20260507071600 | 39 | 102 | 1.7 | 5.2 | 0.00 | 0.00 | 0.00 | 59 | 1022.6 |
| 20260507070137 | 39 | 21 | 4.3 | 7.8 | 0.00 | 0.00 | 0.00 | 63 | 1022.6 |
| 20260507064553 | 39 | 18 | 2.6 | 5.2 | 0.00 | 0.00 | 0.00 | 60 | 1022.5 |
| 20260507063049 | 40 | 66 | 2.6 | 4.3 | 0.00 | 0.00 | 0.00 | 57 | 1022.4 |
| 20260507061549 | 40 | 33 | 3.5 | 7.8 | 0.00 | 0.00 | 0.00 | 58 | 1022.2 |
| 20260507060045 | 40 | 29 | 1.7 | 5.2 | 0.00 | 0.00 | 0.00 | 57 | 1022.1 |
| 20260507054550 | 41 | 8 | 1.7 | 5.2 | 0.00 | 0.01 | 0.00 | 55 | 1022.0 |
| 20260507053045 | 41 | 70 | 1.7 | 3.5 | 0.00 | 0.01 | 0.00 | 58 | 1021.9 |
| 20260507051543 | 42 | 80 | 0.9 | 3.5 | 0.00 | 0.01 | 0.00 | 57 | 1021.9 |
| 20260507050041 | 42 | 78 | 0.9 | 5.2 | 0.00 | 0.01 | 0.00 | 57 | 1021.9 |
| 20260507044546 | 43 | 79 | 2.6 | 4.3 | 0.00 | 0.03 | 0.00 | 55 | 1021.8 |
| 20260507043042 | 44 | 84 | 0.9 | 3.5 | 0.00 | 0.03 | 0.00 | 53 | 1021.6 |
| 20260507041537 | 45 | 85 | 0.0 | 5.2 | 0.00 | 0.03 | 0.00 | 53 | 1021.4 |
| 20260507040034 | 46 | 347 | 1.7 | 3.5 | 0.00 | 0.03 | 0.00 | 48 | 1021.2 |
| 20260507034533 | 46 | 335 | 1.7 | 3.5 | 0.00 | 0.03 | 0.00 | 46 | 1021.0 |
| 20260507033033 | 47 | 269 | 1.7 | 7.0 | 0.00 | 0.03 | 0.00 | 46 | 1021.0 |
| 20260507031530 | 48 | 265 | 0.0 | 5.2 | 0.00 | 0.03 | 0.00 | 44 | 1020.6 |
| 20260507030027 | 49 | 209 | 2.6 | 4.3 | 0.00 | 0.08 | 0.00 | 42 | 1020.4 |
| 20260507024529 | 49 | 237 | 3.5 | 7.8 | 0.00 | 0.08 | 0.00 | 41 | 1020.1 |
| 20260507023025 | 49 | 248 | 5.2 | 9.6 | 0.00 | 0.08 | 0.00 | 39 | 1019.9 |
| 20260507021524 | 50 | 257 | 6.1 | 11.3 | 0.00 | 0.08 | 0.00 | 38 | 1019.7 |
| 20260507020024 | 51 | 273 | 9.6 | 14.8 | 0.00 | 0.18 | 0.00 | 36 | 1019.6 |